Location: Ostrava
(49.8330°N, 18.2830°E)
Time: 06:50:02
(UTC+02:00)

Iridium 39 - Visible Passes

Search period start: 20 August 2014 00:00
Search period end: 30 August 2014 00:00
Orbit: 776 x 779 km, 86.4° (Epoch: 19 August)

Date Brightness Start Highest point End Pass type
(mag) Time Alt. Az. Time Alt. Az. Time Alt. Az.
20 Aug 6.0 20:36:44 10° N 20:41:59 83° E 20:47:11 10° S visible
20 Aug 8.7 22:18:59 10° NW 22:21:59 16° WNW 22:24:58 10° WSW visible
21 Aug 8.2 21:44:34 10° NNW 21:48:48 26° W 21:53:01 10° SW visible
22 Aug 7.3 21:10:35 10° NNW 21:15:30 43° W 21:20:22 10° SSW visible
23 Aug 6.3 20:36:51 10° N 20:42:04 73° W 20:47:15 10° S visible
23 Aug 9.0 22:20:20 10° NW 22:21:48 11° WNW 22:23:17 10° W visible
24 Aug 8.7 21:45:07 10° NNW 21:48:42 19° WNW 21:52:16 10° WSW visible
25 Aug 7.9 21:10:54 10° NNW 21:15:28 31° W 21:20:00 10° SW visible
26 Aug 6.9 20:37:02 10° NNW 20:42:06 53° W 20:47:08 10° SSW visible
27 Aug 8.9 21:45:57 10° NW 21:48:33 14° WNW 21:51:08 10° WSW visible
28 Aug 8.5 21:11:20 10° NNW 21:15:23 23° WNW 21:19:24 10° SW visible
29 Aug 7.6 20:37:18 10° NNW 20:42:06 38° W 20:46:53 10° SSW visible
